Weather History for Aswan, Egypt

Change the Weather History Date:

Monday, February 24, 2014

  Actual Average Record
Temperature  
Mean Temperature 68 °F -  
Max Temperature 80 °F 81 °F 93 °F (2005)
Min Temperature 56 °F 57 °F 48 °F (1997)
Cooling Degree Days 3    
Growing Degree Days 18 (Base 50)    
Moisture  
Dew Point 40 °F    
Average Humidity 35    
Maximum Humidity 55    
Minimum Humidity 12    
Precipitation  
Precipitation 0.00 in 0.00 in - ()
Sea Level Pressure  
Sea Level Pressure 29.93 in    
Wind  
Wind Speed 6 mph ()    
Max Wind Speed 12 mph    
Max Gust Speed -    
Visibility 6.0 miles    
Events      
Averages and records for this station are not official NWS values.
T = Trace of Precipitation, MM = Missing Value Source: Averaged Metar Reports

Daily Weather History Graph

Daily Weather History Graph

Search for Another Location

Airport:

Trip Planner

Search our weather history database for the weather conditions in past years. The results will help you decide how hot, cold, wet, or windy it might be!

Date:

Astronomy

Feb. 24, 2014 Rise Set
Actual Time 6:15 AM EET 5:48 PM EET
Civil Twilight 5:52 AM EET 6:11 PM EET
Nautical Twilight 5:26 AM EET 6:38 PM EET
Astronomical Twilight 4:59 AM EET 7:04 PM EET
Moon 1:34 AM EET (2/24) 12:48 PM EET (2/24)
Length of Visible Light 12h 19m
Length of Day
11h 33m
Waning Crescent, 31% of the Moon is Illuminated
Feb 24
Waning Crescent
Mar 1
New
Mar 8
First Quarter
Mar 16
Full
Mar 24
Last Quarter

Hourly Weather History & Observations

Time (EET) Temp. Dew Point Humidity Pressure Visibility Wind Dir Wind Speed Gust Speed Precip Events Conditions
12:00 AM 64.4 °F 35.6 °F 34% 29.92 in - North 5.8 mph - N/A   Clear
1:00 AM 62.6 °F 39.2 °F 42% 29.92 in - NNW 6.9 mph - N/A   Clear
2:00 AM 60 °F 40 °F 36% 29.91 in 6 mi North 5.8 mph - -  
2:00 AM 60.8 °F 41.0 °F 48% 29.92 in - North 5.8 mph - N/A   Clear
3:00 AM 59.0 °F 41.0 °F 51% 29.89 in - NNE 5.8 mph - N/A   Clear
4:00 AM 57.2 °F 41.0 °F 55% 29.92 in - North 4.6 mph - N/A   Clear
5:00 AM 58 °F 41 °F 41% 29.93 in 6 mi NW 4.6 mph - -  
5:00 AM 57.2 °F 41.0 °F 55% 29.92 in - NW 4.6 mph - N/A   Clear
6:00 AM 57.2 °F 41.0 °F 55% 29.95 in - North 3.5 mph - N/A   Clear
7:00 AM 57.2 °F 41.0 °F 55% 29.95 in - NNW 4.6 mph - N/A   Clear
8:00 AM 61 °F 42 °F 37% 29.96 in 6 mi NNW 4.6 mph - -  
8:00 AM 60.8 °F 41.0 °F 48% 29.98 in - NNW 4.6 mph - N/A   Clear
9:00 AM 64.4 °F 42.8 °F 45% 29.98 in - North 9.2 mph - N/A   Clear
10:00 AM 68.0 °F 44.6 °F 43% 29.98 in - North 9.2 mph - N/A   Clear
11:00 AM 71 °F 42 °F 24% 29.96 in 6 mi North 6.9 mph - -  
11:00 AM 71.6 °F 42.8 °F 35% 29.98 in - North 6.9 mph - N/A   Clear
12:00 PM 75.2 °F 41.0 °F 29% 29.95 in - NW 6.9 mph - N/A   Clear
1:00 PM 77.0 °F 41.0 °F 28% 29.92 in - NNW 8.1 mph - N/A   Clear
2:00 PM 79 °F 36 °F 12% 29.88 in 6 mi NW 9.2 mph - -  
2:00 PM 78.8 °F 37.4 °F 23% 29.89 in - NW 9.2 mph - N/A   Clear
3:00 PM 78.8 °F 35.6 °F 21% 29.89 in - NW 6.9 mph - N/A   Clear
4:00 PM 80.6 °F 33.8 °F 18% 29.89 in - North 6.9 mph - N/A   Clear
5:00 PM 78 °F 39 °F 15% 29.87 in 6 mi North 8.1 mph - -  
5:00 PM 78.8 °F 39.2 °F 24% 29.89 in - North 8.1 mph - N/A   Clear
6:00 PM 75.2 °F 37.4 °F 25% 29.89 in - North 11.5 mph - N/A   Clear
7:00 PM 73.4 °F 37.4 °F 27% 29.92 in - North 8.1 mph - N/A   Clear
8:00 PM 71 °F 38 °F 20% 29.93 in 6 mi North 8.1 mph - -  
8:00 PM 69.8 °F 39.2 °F 33% 29.95 in - North 8.1 mph - N/A   Clear
9:00 PM 68.0 °F 39.2 °F 35% 29.95 in - NNW 6.9 mph - N/A   Clear
10:00 PM 66.2 °F 39.2 °F 37% 29.95 in - NNW 6.9 mph - N/A   Clear
11:00 PM 65 °F 41 °F 29% 29.96 in 6 mi NW 5.8 mph - -  
11:00 PM 64.4 °F 41.0 °F 42% 29.98 in - NW 5.8 mph - N/A   Clear